ARIANE 2 DEB, 26727

Orbit data source: Space-Track

ARIANE 2 DEB, 26727 is space debris in HEO originally from a launch on Fri, 27 Jan 1989 UTC launched from the French Guiana (FRGUI). Debris objects in space refer to the collection of defunct objects orbiting the Earth. Examples of debris include non-operational satellites, rocket bodies, and fragments generated from explosions, collisions, or faulty payload assembly.

Loading next visibility...
Identifier
26727, 1989-006E
Orbit
HEO
Country
Flag of FRFR
Related business
Manufacturer
EADS/LV
Mission
Spacecraft
Bus & Motor
Unknown
Mass
Unknown
Launch date (UTC)
1989-01-27 (37 years ago)
Launch vehicle
Unknown
Launch site
French Guiana (FRGUI)
Object type
Payload
Rocket body
Debris
Shape & HBR
Unknown shape, 0.3 m
Radar Cross Section
Medium (>0.1 m² and <1 m²)

Expand to show TLE details & history
Last TLE update: 19 hours ago

TLE from 19 hours ago
0 ARIANE 2 DEB
1 26727U 89006E   26207.58674088  .00000091  00000-0  31203-2 0  9991
2 26727   8.3169  80.2674 7152759  64.9662 101.1021  2.29013664212597
Epoch: 2026-07-26T14:04Z
TLE epoch observation values (Epoch: 2026-07-26T14:04:54.412Z)
Latitude
-5.80237°
Longitude
148.73993°
Altitude
29,542.029 km
Speed
2.408 km/s
True Right ascension
20h 16m 59s
True Declination
-5° 47' 44"
Sunlit
Object was in daylight at epoch
Visualization orbit readout
Latitude
Unknown
Longitude
Unknown
Altitude
Unknown
Speed
Unknown
Apparent Right ascension
Unknown
Apparent Declination
Unknown
Sunlit
N/A
Visualization observer readout
Local Sidereal Time
22:26:05
Azimuth
Unknown
Elevation
Unknown
Doppler factor
Unknown
Orbital elements
Apogee altitude
35,333.158 km
Perigee altitude
545.653 km
Semi-major axis
24,317.542 km
Eccentricity
0.71528
Inclination
8.3169°
RAAN
80.2674°
Arg. of periapsis
64.9662°
True anomaly
159.29553°
Mean anomaly
101.1021°
Eccentric anomaly
131.70071°
Mean motion
0.57235 °/min
Orbital period
628.98 mins
BSTAR
0.0031203
Loading maneuver chart data...
Computing Atmospheric mass density...
Loading historical data...
Loading historical data...
Loading historical data...
Loading historical data...
Loading historical data...
Loading historical data...
Loading historical data...

Documentation

Showing up to 5 results
|